| time (UTC) | temp F | wind direction | speed knots | gust knots | rain 1hr in | rain 24hr in | rain mn in | humidity % | barometer mb |
| 20260902083009 | 74 | 216 | 0.0 | 0.0 | 0.00 | 0.00 | 0.00 | 93 | 1017.8 |
| 20260902081509 | 74 | 216 | 0.0 | 0.0 | 0.00 | 0.00 | 0.00 | 93 | 1017.8 |
| 20260902080014 | 74 | 216 | 0.0 | 0.0 | 0.00 | 0.00 | 0.00 | 93 | 1017.7 |
| 20260902074506 | 74 | 216 | 0.0 | 0.0 | 0.00 | 0.00 | 0.00 | 93 | 1017.7 |
| 20260902073005 | 74 | 216 | 0.0 | 0.0 | 0.00 | 0.00 | 0.00 | 92 | 1017.6 |
| 20260902071504 | 74 | 216 | 0.0 | 0.0 | 0.00 | 0.00 | 0.00 | 92 | 1017.7 |
| 20260902070002 | 75 | 216 | 0.0 | 0.0 | 0.00 | 0.00 | 0.00 | 92 | 1017.7 |
| 20260902064501 | 75 | 216 | 0.0 | 0.0 | 0.00 | 0.00 | 0.00 | 92 | 1017.9 |
| 20260902063132 | 75 | 216 | 0.0 | 0.0 | 0.00 | 0.00 | 0.00 | 91 | 1017.9 |
| 20260902061559 | 75 | 216 | 0.0 | 0.0 | 0.00 | 0.00 | 0.00 | 91 | 1018.0 |
| 20260902060133 | 75 | 216 | 0.0 | 0.0 | 0.00 | 0.00 | 0.00 | 91 | 1018.2 |
| 20260902054557 | 75 | 216 | 0.0 | 0.0 | 0.00 | 0.00 | 0.00 | 91 | 1018.3 |
| 20260902053056 | 75 | 216 | 0.0 | 0.0 | 0.00 | 0.00 | 0.00 | 90 | 1018.2 |
| 20260902051603 | 76 | 216 | 0.0 | 0.0 | 0.00 | 0.00 | 0.00 | 90 | 1018.1 |
| 20260902050054 | 76 | 216 | 0.0 | 0.0 | 0.00 | 0.00 | 0.00 | 89 | 1018.0 |
| 20260902044553 | 76 | 216 | 0.0 | 0.0 | 0.00 | 0.00 | 0.00 | 89 | 1017.9 |
| 20260902043053 | 76 | 216 | 0.0 | 0.0 | 0.00 | 0.00 | 0.00 | 89 | 1017.9 |
| 20260902041550 | 76 | 216 | 0.0 | 0.0 | 0.00 | 0.00 | 0.00 | 88 | 1017.8 |
| 20260902040048 | 76 | 216 | 0.0 | 0.0 | 0.00 | 0.00 | 0.00 | 87 | 1017.9 |
| 20260902034547 | 77 | 216 | 0.0 | 0.0 | 0.00 | 0.00 | 0.00 | 85 | 1017.7 |
| 20260902033046 | 77 | 216 | 0.0 | 0.0 | 0.00 | 0.00 | 0.00 | 85 | 1017.6 |
| 20260902031547 | 77 | 216 | 0.0 | 0.0 | 0.00 | 0.00 | 0.00 | 85 | 1017.6 |
| 20260902030046 | 77 | 216 | 0.0 | 0.0 | 0.00 | 0.00 | 0.00 | 84 | 1017.7 |
| 20260902024545 | 78 | 216 | 0.0 | 0.0 | 0.00 | 0.00 | 0.00 | 83 | 1017.7 |
| 20260902023046 | 78 | 216 | 0.0 | 0.0 | 0.00 | 0.00 | 0.00 | 83 | 1017.8 |
| 20260902021547 | 79 | 216 | 0.0 | 0.0 | 0.00 | 0.00 | 0.00 | 83 | 1017.7 |
| 20260902020100 | 79 | 216 | 0.0 | 0.0 | 0.00 | 0.00 | 0.00 | 82 | 1017.4 |
| 20260902014550 | 80 | 216 | 0.0 | 0.0 | 0.00 | 0.00 | 0.00 | 81 | 1017.3 |
| 20260902013043 | 80 | 216 | 0.0 | 0.0 | 0.00 | 0.00 | 0.00 | 80 | 1017.1 |
| 20260902011542 | 81 | 216 | 0.0 | 0.0 | 0.00 | 0.00 | 0.00 | 79 | 1017.0 |
| 20260902010043 | 82 | 216 | 0.0 | 0.0 | 0.00 | 0.00 | 0.00 | 78 | 1016.9 |
| 20260902004542 | 83 | 216 | 0.0 | 0.0 | 0.00 | 0.00 | 0.00 | 76 | 1016.8 |
| 20260902003041 | 83 | 216 | 0.0 | 0.0 | 0.00 | 0.00 | 0.00 | 75 | 1016.8 |
| 20260902001540 | 84 | 216 | 0.0 | 0.0 | 0.00 | 0.00 | 0.00 | 74 | 1016.5 |
| 20260902000044 | 84 | 216 | 0.0 | 0.0 | 0.00 | 0.00 | 0.00 | 74 | 1016.8 |
| 20260901234558 | 84 | 216 | 0.0 | 0.0 | 0.00 | 0.00 | 0.00 | 75 | 1016.8 |
| 20260901233045 | 85 | 216 | 0.0 | 0.0 | 0.00 | 0.00 | 0.00 | 74 | 1016.7 |
| 20260901231540 | 86 | 216 | 0.0 | 0.0 | 0.00 | 0.00 | 0.00 | 71 | 1016.7 |
| 20260901230044 | 88 | 215 | 0.0 | 0.9 | 0.00 | 0.00 | 0.00 | 69 | 1016.7 |
| 20260901224541 | 90 | 215 | 0.0 | 2.6 | 0.00 | 0.00 | 0.00 | 60 | 1016.7 |
| 20260901223037 | 92 | 215 | 0.0 | 1.7 | 0.00 | 0.00 | 0.00 | 56 | 1016.8 |
| 20260901221601 | 93 | 215 | 1.7 | 4.3 | 0.00 | 0.00 | 0.00 | 53 | 1016.8 |
| 20260901220036 | 93 | 260 | 0.9 | 3.5 | 0.00 | 0.00 | 0.00 | 52 | 1016.6 |
| 20260901214535 | 94 | 230 | 0.9 | 4.3 | 0.00 | 0.00 | 0.00 | 51 | 1016.6 |
| 20260901213038 | 94 | 278 | 0.9 | 3.5 | 0.00 | 0.00 | 0.00 | 51 | 1016.7 |
| 20260901211537 | 94 | 209 | 1.7 | 7.0 | 0.00 | 0.00 | 0.00 | 52 | 1016.7 |
| 20260901210037 | 94 | 38 | 0.9 | 5.2 | 0.00 | 0.00 | 0.00 | 51 | 1016.7 |
| 20260901204536 | 94 | 90 | 1.7 | 4.3 | 0.00 | 0.00 | 0.00 | 51 | 1016.8 |
| 20260901203046 | 94 | 227 | 1.7 | 5.2 | 0.00 | 0.00 | 0.00 | 54 | 1017.0 |
| 20260901201543 | 94 | 260 | 0.9 | 4.3 | 0.00 | 0.00 | 0.00 | 52 | 1017.0 |
| 20260901200032 | 94 | 167 | 1.7 | 7.0 | 0.00 | 0.00 | 0.00 | 53 | 1017.2 |
| 20260901194527 | 94 | 242 | 2.6 | 6.1 | 0.00 | 0.00 | 0.00 | 53 | 1017.3 |
| 20260901193025 | 93 | 288 | 0.9 | 7.8 | 0.00 | 0.00 | 0.00 | 53 | 1017.4 |
| 20260901191523 | 93 | 281 | 1.7 | 5.2 | 0.00 | 0.00 | 0.00 | 52 | 1017.6 |
| 20260901190021 | 93 | 59 | 0.9 | 4.3 | 0.00 | 0.00 | 0.00 | 54 | 1017.8 |
| 20260901184517 | 93 | 172 | 0.9 | 5.2 | 0.00 | 0.00 | 0.00 | 56 | 1017.8 |
| 20260901183014 | 92 | 236 | 2.6 | 5.2 | 0.00 | 0.00 | 0.00 | 54 | 1018.0 |
| 20260901181517 | 92 | 300 | 1.7 | 6.1 | 0.00 | 0.00 | 0.00 | 58 | 1018.3 |
| 20260901180012 | 92 | 217 | 1.7 | 6.1 | 0.00 | 0.00 | 0.00 | 60 | 1018.5 |
| 20260901174511 | 92 | 304 | 1.7 | 3.5 | 0.00 | 0.00 | 0.00 | 57 | 1018.4 |
| 20260901173008 | 91 | 63 | 1.7 | 4.3 | 0.00 | 0.00 | 0.00 | 60 | 1018.7 |
| 20260901171509 | 91 | 284 | 1.7 | 6.1 | 0.00 | 0.00 | 0.00 | 60 | 1018.9 |
| 20260901170009 | 90 | 218 | 1.7 | 8.7 | 0.00 | 0.00 | 0.00 | 62 | 1019.0 |
| 20260901164502 | 89 | 203 | 0.9 | 5.2 | 0.00 | 0.00 | 0.00 | 65 | 1019.1 |
| 20260901163113 | 89 | 160 | 0.9 | 4.3 | 0.00 | 0.00 | 0.00 | 65 | 1019.3 |
| 20260901161556 | 88 | 156 | 1.7 | 5.2 | 0.00 | 0.00 | 0.00 | 68 | 1019.4 |
| 20260901160101 | 87 | 217 | 1.7 | 5.2 | 0.00 | 0.00 | 0.00 | 72 | 1019.5 |
| 20260901154549 | 87 | 39 | 0.9 | 5.2 | 0.00 | 0.00 | 0.00 | 70 | 1019.7 |
| 20260901153048 | 86 | 294 | 0.9 | 3.5 | 0.00 | 0.00 | 0.00 | 72 | 1019.8 |
| 20260901151547 | 86 | 71 | 1.7 | 4.3 | 0.00 | 0.00 | 0.00 | 72 | 1019.8 |
| 20260901150044 | 85 | 125 | 0.9 | 4.3 | 0.00 | 0.00 | 0.00 | 73 | 1019.7 |
| 20260901144538 | 84 | 194 | 1.7 | 4.3 | 0.00 | 0.00 | 0.00 | 78 | 1019.9 |
| 20260901143034 | 83 | 189 | 0.0 | 2.6 | 0.00 | 0.00 | 0.00 | 81 | 1019.9 |
| 20260901141530 | 81 | 252 | 0.9 | 4.3 | 0.00 | 0.00 | 0.00 | 84 | 1019.8 |
| 20260901140025 | 80 | 230 | 0.9 | 3.5 | 0.00 | 0.00 | 0.00 | 87 | 1019.7 |
| 20260901134536 | 79 | 128 | 0.9 | 3.5 | 0.00 | 0.00 | 0.00 | 91 | 1019.7 |
| 20260901133116 | 77 | 198 | 0.9 | 3.5 | 0.00 | 0.00 | 0.00 | 94 | 1019.6 |
| 20260901131514 | 76 | 284 | 1.7 | 4.3 | 0.00 | 0.00 | 0.00 | 96 | 1019.5 |
| 20260901130008 | 75 | 234 | 0.9 | 6.1 | 0.00 | 0.00 | 0.00 | 97 | 1019.6 |
| 20260901124506 | 74 | 79 | 0.0 | 2.6 | 0.00 | 0.00 | 0.00 | 97 | 1019.7 |
| 20260901123004 | 72 | 74 | 0.0 | 2.6 | 0.00 | 0.00 | 0.00 | 96 | 1019.6 |
| 20260901121504 | 71 | 77 | 0.0 | 0.9 | 0.00 | 0.00 | 0.00 | 95 | 1019.7 |
| 20260901120002 | 71 | 77 | 0.0 | 0.0 | 0.00 | 0.00 | 0.00 | 95 | 1019.6 |
| 20260901114610 | 70 | 77 | 0.0 | 0.0 | 0.00 | 0.00 | 0.00 | 95 | 1019.5 |
| 20260901113130 | 70 | 77 | 0.0 | 0.0 | 0.00 | 0.00 | 0.00 | 94 | 1019.2 |
| 20260901111600 | 70 | 77 | 0.0 | 0.0 | 0.00 | 0.00 | 0.00 | 94 | 1019.1 |
| 20260901110106 | 70 | 77 | 0.0 | 0.0 | 0.00 | 0.00 | 0.00 | 94 | 1019.0 |
| 20260901104602 | 70 | 77 | 0.0 | 0.0 | 0.00 | 0.00 | 0.00 | 94 | 1018.9 |
| 20260901103058 | 70 | 77 | 0.0 | 0.0 | 0.00 | 0.00 | 0.00 | 94 | 1018.9 |
| 20260901101612 | 71 | 77 | 0.0 | 0.0 | 0.00 | 0.00 | 0.00 | 94 | 1018.9 |
| 20260901100107 | 71 | 77 | 0.0 | 0.0 | 0.00 | 0.00 | 0.00 | 94 | 1018.7 |
| 20260901094553 | 71 | 77 | 0.0 | 0.0 | 0.00 | 0.00 | 0.00 | 94 | 1018.5 |
| 20260901093052 | 71 | 77 | 0.0 | 0.0 | 0.00 | 0.00 | 0.00 | 94 | 1018.5 |
| 20260901091551 | 71 | 77 | 0.0 | 0.0 | 0.00 | 0.00 | 0.00 | 94 | 1018.5 |
| 20260901090055 | 71 | 77 | 0.0 | 0.0 | 0.00 | 0.00 | 0.00 | 94 | 1018.5 |
| 20260901084549 | 72 | 77 | 0.0 | 0.0 | 0.00 | 0.00 | 0.00 | 94 | 1018.5 |